Change the Weather History Date:

Friday, January 18, 2013

  Actual Average Record
Temperature  
Mean Temperature 50 °F -  
Max Temperature 63 °F 62 °F 82 °F (2000)
Min Temperature 36 °F 41 °F 24 °F (2003)
Degree Days  
Heating Degree Days 16    
Moisture  
Dew Point 34 °F    
Average Humidity 55    
Maximum Humidity 86    
Minimum Humidity 31    
Precipitation  
Precipitation 0.00 in - - ()
Sea Level Pressure  
Sea Level Pressure 30.42 in    
Wind  
Wind Speed 4 mph (ESE)    
Max Wind Speed 8 mph    
Max Gust Speed -    
Visibility 10 miles    
Events      
Averages and records for this station are not official NWS values.
T = Trace of Precipitation, MM = Missing Value Source: NWS Daily Summary

Daily Weather History Graph

Daily Weather History Graph

Search for Another Location

Airport or City:

Trip Planner

Search our weather history database for the weather conditions in past years. The results will help you decide how hot, cold, wet, or windy it might be!

Date:

Astronomy

Jan. 18, 2013 Rise Set
Actual Time 7:28 AM CST 6:00 PM CST
Civil Twilight 7:03 AM CST 6:26 PM CST
Nautical Twilight 6:34 AM CST 6:55 PM CST
Astronomical Twilight 6:05 AM CST 7:23 PM CST
Moon 11:46 AM CST (1/18) 12:16 AM CST (1/18)
Length of Visible Light 11h 23m
Length of Day
10h 32m
Waxing Crescent, 47% of the Moon is Illuminated
Jan 18
Waxing Crescent
Jan 18
First Quarter
Jan 26
Full
Feb 3
Last Quarter
Feb 10
New

Hourly Weather History & Observations

Time (CST) Temp. Windchill Dew Point Humidity Pressure Visibility Wind Dir Wind Speed Gust Speed Precip Events Conditions
12:53 AM 46.9 °F - 34.0 °F 61% 30.47 in 10.0 mi North 4.6 mph - N/A   Clear
1:53 AM 46.9 °F - 33.1 °F 59% 30.48 in 10.0 mi NNE 4.6 mph - N/A   Clear
2:53 AM 46.0 °F 43.9 °F 33.1 °F 61% 30.48 in 10.0 mi NNE 4.6 mph - N/A   Clear
3:53 AM 44.1 °F 42.5 °F 33.1 °F 65% 30.48 in 10.0 mi North 3.5 mph - N/A   Clear
4:53 AM 43.0 °F 41.3 °F 33.1 °F 68% 30.48 in 10.0 mi North 3.5 mph - N/A   Clear
5:53 AM 43.0 °F 40.3 °F 32.0 °F 65% 30.48 in 10.0 mi North 4.6 mph - N/A   Clear
6:53 AM 42.1 °F 39.2 °F 32.0 °F 67% 30.50 in 10.0 mi North 4.6 mph - N/A   Clear
7:53 AM 36.0 °F - 32.0 °F 86% 30.51 in 10.0 mi Calm Calm - N/A   Clear
8:53 AM 48.0 °F - 34.0 °F 58% 30.52 in 10.0 mi Calm Calm - N/A   Clear
9:53 AM 52.0 °F - 34.0 °F 50% 30.53 in 10.0 mi East 5.8 mph - N/A   Clear
10:53 AM 55.9 °F - 35.1 °F 45% 30.52 in 10.0 mi SE 6.9 mph - N/A   Clear
11:53 AM 57.9 °F - 35.1 °F 42% 30.48 in 10.0 mi SE 4.6 mph - N/A   Clear
12:53 PM 62.1 °F - 34.0 °F 35% 30.42 in 10.0 mi South 6.9 mph - N/A   Clear
1:53 PM 63.0 °F - 32.0 °F 31% 30.38 in 10.0 mi SSE 8.1 mph - N/A   Clear
2:53 PM 63.0 °F - 33.1 °F 33% 30.35 in 10.0 mi SW 6.9 mph - N/A   Clear
3:53 PM 63.0 °F - 32.0 °F 31% 30.33 in 10.0 mi SSE 5.8 mph - N/A   Clear
4:53 PM 62.1 °F - 32.0 °F 32% 30.34 in 10.0 mi South 5.8 mph - N/A   Clear
5:53 PM 60.1 °F - 32.0 °F 35% 30.34 in 10.0 mi SSE 3.5 mph - N/A   Clear
6:53 PM 54.0 °F - 34.0 °F 47% 30.35 in 10.0 mi Calm Calm - N/A   Clear
7:53 PM 48.0 °F - 34.0 °F 58% 30.36 in 10.0 mi Calm Calm - N/A   Clear
8:53 PM 45.0 °F - 36.0 °F 71% 30.35 in 10.0 mi Calm Calm - N/A   Clear
9:53 PM 43.0 °F 40.3 °F 36.0 °F 76% 30.35 in 10.0 mi SE 4.6 mph - N/A   Clear
10:53 PM 46.0 °F 44.8 °F 35.1 °F 66% 30.34 in 10.0 mi ESE 3.5 mph - N/A   Clear
11:53 PM 45.0 °F - 37.0 °F 74% 30.33 in 10.0 mi Calm Calm - N/A   Clear